Tracking 19176 objects as of 26-May-2018
HD Live streaming from Space Station
objects crossing your sky now

NOAA 16 DEB

Track NOAA 16 DEB now!
10-day predictions


NORAD ID: 41290
Int'l Code: 2000-055GS
Perigee: 815.8 km
Apogee: 857.1 km
Inclination: 99.0 °
Period: 101.5 minutes
Semi major axis: 7207 km
RCS: Unknown
Launch date: September 21, 2000
Source: United States (US)
Launch site: AIR FORCE WESTERN TEST RANGE (AFWTR)

Note: This is SATELLITE DEBRIS
aabbcc
Your satellite tracking list
Your tracking list is empty




NASA's NSSDC Master Catalog

Two Line Element Set (TLE):
1 41290U 00055GS  18145.71420451  .00001070  00000-0  53432-3 0  9997
2 41290  98.9859 238.9472 0028629  49.4317 310.9343 14.18832889125290
Source of the keplerian elements: AFSPC